EN

Hourly Weather Kyzylzhar (Ordabasinskiy rayon)

Today, 4 August, Wednesday

Time Temperature Precipitation Wind Pressure Humidity
00:00 +34°C° 0 mm 6 mps 732 mmHg 22%
01:00 +33°C° 0 mm 6 mps 732 mmHg 22%
02:00 +33°C° 0 mm 6 mps 732 mmHg 23%
03:00 +32°C° 0 mm 6 mps 732 mmHg 23%
04:00 +30°C° 0 mm 5 mps 732 mmHg 24%
05:00 +30°C° 0 mm 4 mps 732 mmHg 24%
06:00 +33°C° 0 mm 5 mps 733 mmHg 22%
07:00 +35°C° 0 mm 6 mps 733 mmHg 19%
08:00 +38°C° 0 mm 7 mps 733 mmHg 16%
09:00 +39°C° 0 mm 7 mps 733 mmHg 15%
10:00 +41°C° 0 mm 7 mps 733 mmHg 13%
11:00 +44°C° 0 mm 8 mps 733 mmHg 12%
12:00 +44°C° 0 mm 7 mps 733 mmHg 12%
13:00 +44°C° 0 mm 7 mps 733 mmHg 12%
14:00 +45°C° 0 mm 7 mps 733 mmHg 11%
15:00 +45°C° 0 mm 7 mps 732 mmHg 11%
16:00 +44°C° 0 mm 6 mps 732 mmHg 11%
17:00 +44°C° 0 mm 6 mps 732 mmHg 11%
18:00 +41°C° 0 mm 6 mps 732 mmHg 13%
19:00 +40°C° 0 mm 5 mps 732 mmHg 14%
20:00 +37°C° 0 mm 5 mps 732 mmHg 16%
21:00 +36°C° 0 mm 6 mps 732 mmHg 16%
22:00 +37°C° 0 mm 8 mps 732 mmHg 16%
23:00 +37°C° 0 mm 10 mps 732 mmHg 16%

Tomorrow, 5 August, Thursday

Time Temperature Precipitation Wind Pressure Humidity
00:00 +36°C° 0 mm 10 mps 732 mmHg 17%
01:00 +34°C° 0 mm 10 mps 732 mmHg 17%
02:00 +33°C° 0 mm 10 mps 732 mmHg 18%
03:00 +33°C° 0 mm 10 mps 732 mmHg 20%
04:00 +32°C° 0 mm 10 mps 732 mmHg 23%
05:00 +31°C° 0 mm 10 mps 732 mmHg 25%
06:00 +32°C° 0 mm 10 mps 732 mmHg 23%
07:00 +34°C° 0 mm 11 mps 733 mmHg 22%
08:00 +36°C° 0 mm 11 mps 733 mmHg 20%
09:00 +37°C° 0 mm 11 mps 733 mmHg 18%
10:00 +39°C° 0 mm 11 mps 733 mmHg 16%
11:00 +42°C° 0 mm 10 mps 733 mmHg 14%
12:00 +43°C° 0 mm 10 mps 732 mmHg 13%
13:00 +43°C° 0 mm 9 mps 732 mmHg 12%
14:00 +44°C° 0 mm 9 mps 732 mmHg 12%
15:00 +44°C° 0 mm 8 mps 732 mmHg 12%
16:00 +43°C° 0 mm 8 mps 732 mmHg 12%
17:00 +43°C° 0 mm 8 mps 732 mmHg 13%
18:00 +40°C° 0 mm 8 mps 732 mmHg 13%
19:00 +39°C° 0 mm 7 mps 732 mmHg 14%
20:00 +36°C° 0 mm 7 mps 732 mmHg 15%
21:00 +35°C° 0 mm 7 mps 732 mmHg 15%
22:00 +35°C° 0 mm 7 mps 732 mmHg 16%
23:00 +34°C° 0 mm 7 mps 732 mmHg 16%

Day after tomorrow, 6 August, Friday

Time Temperature Precipitation Wind Pressure Humidity
00:00 +33°C° 0 mm 6 mps 732 mmHg 18%
01:00 +32°C° 0 mm 6 mps 732 mmHg 20%
02:00 +30°C° 0 mm 5 mps 732 mmHg 22%
03:00 +29°C° 0 mm 5 mps 732 mmHg 23%
04:00 +29°C° 0 mm 4 mps 732 mmHg 25%
05:00 +28°C° 0 mm 4 mps 732 mmHg 26%
06:00 +30°C° 0 mm 4 mps 732 mmHg 23%
07:00 +33°C° 0 mm 5 mps 732 mmHg 19%
08:00 +35°C° 0 mm 5 mps 733 mmHg 16%
09:00 +38°C° 0 mm 6 mps 733 mmHg 14%
10:00 +39°C° 0 mm 7 mps 733 mmHg 13%
11:00 +41°C° 0 mm 8 mps 733 mmHg 12%
12:00 +41°C° 0 mm 7 mps 733 mmHg 11%
13:00 +43°C° 0 mm 7 mps 732 mmHg 11%
14:00 +44°C° 0 mm 7 mps 732 mmHg 10%
15:00 +43°C° 0 mm 7 mps 732 mmHg 10%
16:00 +43°C° 0 mm 7 mps 732 mmHg 10%
17:00 +43°C° 0 mm 7 mps 732 mmHg 10%
18:00 +40°C° 0 mm 6 mps 732 mmHg 12%
19:00 +37°C° 0 mm 5 mps 732 mmHg 13%
20:00 +35°C° 0 mm 5 mps 732 mmHg 15%
21:00 +34°C° 0 mm 5 mps 732 mmHg 16%
22:00 +33°C° 0 mm 5 mps 732 mmHg 17%
23:00 +32°C° 0 mm 5 mps 732 mmHg 18%

7 August, Saturday

Time Temperature Precipitation Wind Pressure Humidity
00:00 +32°C° 0 mm 5 mps 732 mmHg 20%
01:00 +30°C° 0 mm 5 mps 732 mmHg 22%
02:00 +29°C° 0 mm 5 mps 732 mmHg 24%
03:00 +29°C° 0 mm 5 mps 732 mmHg 24%
04:00 +28°C° 0 mm 4 mps 732 mmHg 24%
05:00 +27°C° 0 mm 4 mps 732 mmHg 25%
06:00 +30°C° 0 mm 4 mps 733 mmHg 22%
07:00 +33°C° 0 mm 5 mps 733 mmHg 19%
08:00 +35°C° 0 mm 6 mps 733 mmHg 16%
09:00 +38°C° 0 mm 6 mps 733 mmHg 14%
10:00 +40°C° 0 mm 7 mps 733 mmHg 13%
11:00 +43°C° 0 mm 7 mps 733 mmHg 11%
12:00 +43°C° 0 mm 7 mps 733 mmHg 11%
13:00 +44°C° 0 mm 8 mps 733 mmHg 10%
14:00 +44°C° 0 mm 8 mps 733 mmHg 10%
15:00 +44°C° 0 mm 8 mps 733 mmHg 10%
16:00 +44°C° 0 mm 8 mps 732 mmHg 10%
17:00 +44°C° 0 mm 8 mps 732 mmHg 10%
18:00 +41°C° 0 mm 7 mps 733 mmHg 11%
19:00 +39°C° 0 mm 7 mps 733 mmHg 12%
20:00 +36°C° 0 mm 6 mps 733 mmHg 13%
21:00 +35°C° 0 mm 6 mps 733 mmHg 14%
22:00 +34°C° 0 mm 5 mps 733 mmHg 14%
23:00 +33°C° 0 mm 5 mps 733 mmHg 15%

8 August, Sunday

Time Temperature Precipitation Wind Pressure Humidity
00:00 +32°C° 0 mm 5 mps 733 mmHg 17%
01:00 +32°C° 0 mm 5 mps 733 mmHg 18%
02:00 +30°C° 0 mm 5 mps 733 mmHg 20%
03:00 +30°C° 0 mm 5 mps 733 mmHg 21%
04:00 +29°C° 0 mm 5 mps 733 mmHg 21%
05:00 +29°C° 0 mm 4 mps 733 mmHg 22%
06:00 +32°C° 0 mm 5 mps 734 mmHg 20%
07:00 +34°C° 0 mm 6 mps 734 mmHg 17%
08:00 +38°C° 0 mm 7 mps 735 mmHg 14%
09:00 +39°C° 0 mm 7 mps 735 mmHg 13%
10:00 +41°C° 0 mm 8 mps 735 mmHg 11%
11:00 +44°C° 0 mm 8 mps 735 mmHg 10%
12:00 +44°C° 0 mm 8 mps 735 mmHg 10%
13:00 +45°C° 0 mm 7 mps 734 mmHg 9%
14:00 +45°C° 0 mm 7 mps 734 mmHg 9%
15:00 +45°C° 0 mm 7 mps 734 mmHg 8%
16:00 +45°C° 0 mm 7 mps 734 mmHg 8%
17:00 +45°C° 0 mm 8 mps 734 mmHg 8%
18:00 +43°C° 0 mm 7 mps 734 mmHg 10%
19:00 +39°C° 0 mm 5 mps 734 mmHg 12%
20:00 +36°C° 0 mm 4 mps 735 mmHg 13%
21:00 +35°C° 0 mm 4 mps 735 mmHg 14%
22:00 +34°C° 0 mm 4 mps 735 mmHg 16%
23:00 +33°C° 0 mm 4 mps 735 mmHg 17%

9 August, Monday

Time Temperature Precipitation Wind Pressure Humidity
00:00 +32°C° 0 mm 4 mps 735 mmHg 17%
01:00 +31°C° 0 mm 3 mps 734 mmHg 17%
02:00 +30°C° 0 mm 3 mps 734 mmHg 18%
03:00 +30°C° 0 mm 3 mps 734 mmHg 19%
04:00 +30°C° 0 mm 3 mps 734 mmHg 20%
05:00 +30°C° 0 mm 3 mps 734 mmHg 21%
06:00 +33°C° 0 mm 4 mps 735 mmHg 19%
07:00 +35°C° 0 mm 4 mps 735 mmHg 18%
08:00 +37°C° 0 mm 5 mps 735 mmHg 17%
09:00 +40°C° 0 mm 5 mps 735 mmHg 15%
10:00 +42°C° 0 mm 5 mps 735 mmHg 13%
11:00 +43°C° 0 mm 5 mps 735 mmHg 12%
12:00 +45°C° 0 mm 5 mps 735 mmHg 11%
13:00 +45°C° 0 mm 6 mps 734 mmHg 11%
14:00 +46°C° 0 mm 6 mps 734 mmHg 11%
15:00 +46°C° 0 mm 6 mps 734 mmHg 11%
16:00 +45°C° 0 mm 6 mps 734 mmHg 11%
17:00 +45°C° 0 mm 6 mps 734 mmHg 12%
18:00 +43°C° 0 mm 7 mps 734 mmHg 13%
19:00 +41°C° 0 mm 8 mps 734 mmHg 15%
20:00 +39°C° 0 mm 8 mps 734 mmHg 16%
21:00 +38°C° 0 mm 9 mps 734 mmHg 16%
22:00 +35°C° 0 mm 9 mps 734 mmHg 16%
23:00 +34°C° 0 mm 10 mps 734 mmHg 16%
Show more